Location: Copeville
(33.0796°N, 96.4155°W)
Time: 09:13:52
(UTC+00:00)

DELTA 1 DEB - Pass Details

Date: 01 December 2023
Orbit: 810 x 850 km, 99.0° (Epoch: 17 February)

Event Time Altitude Azimuth Distance (km) Brightness Sun altitude
Rises 11:33:46 0° 31° (NNE) 3,396 ? -19.9°
Reaches altitude 10° 11:36:43 10° 47° (NE) 2,464 ? -19.3°
Maximum altitude 11:40:47 21° 96° (E) 1,806 ? -18.5°
Drops below altitude 10° 11:44:51 10° 144° (SE) 2,467 ? -17.7°
Sets 11:47:47 0° 160° (SSE) 3,401 ? -17.1°
